• în România
  • Lista ţărilor
  • Pe 7 zile
  • Temperatura apei
  • Hartă satelitară
  • Meteo pe hartă
  • Widget-uri
  • user-avatar
    Intrare

    Meteo pe oră la Osinovka

    Astăzi, 21 Septembrie, Vineri

    Timp Temperatura Precipitaţii Vânt Presiune Umiditate
    00:00 +15°C° 0 mm 2 m/s 750 mmHg 92%
    01:00 +14°C° 0 mm 2 m/s 751 mmHg 93%
    02:00 +14°C° 0 mm 2 m/s 751 mmHg 94%
    03:00 +14°C° 0 mm 2 m/s 751 mmHg 94%
    04:00 +14°C° 0 mm 2 m/s 751 mmHg 94%
    05:00 +13°C° 0 mm 2 m/s 751 mmHg 95%
    06:00 +15°C° 0 mm 2 m/s 751 mmHg 89%
    07:00 +16°C° 0 mm 2 m/s 752 mmHg 83%
    08:00 +18°C° 0 mm 2 m/s 752 mmHg 77%
    09:00 +19°C° 0 mm 2 m/s 752 mmHg 71%
    10:00 +21°C° 0 mm 2 m/s 752 mmHg 65%
    11:00 +24°C° 0 mm 3 m/s 752 mmHg 59%
    12:00 +25°C° 0 mm 3 m/s 752 mmHg 58%
    13:00 +25°C° 0 mm 3 m/s 752 mmHg 57%
    14:00 +26°C° 0 mm 3 m/s 752 mmHg 56%
    15:00 +24°C° 0 mm 2 m/s 752 mmHg 62%
    16:00 +23°C° 0 mm 2 m/s 752 mmHg 68%
    17:00 +21°C° 0 mm 2 m/s 752 mmHg 74%
    18:00 +20°C° 0 mm 2 m/s 751 mmHg 77%
    19:00 +19°C° 0 mm 2 m/s 751 mmHg 81%
    20:00 +17°C° 0 mm 2 m/s 751 mmHg 85%
    21:00 +17°C° 0 mm 2 m/s 751 mmHg 85%
    22:00 +16°C° 0 mm 2 m/s 751 mmHg 86%
    23:00 +16°C° 0 mm 2 m/s 751 mmHg 86%

    Mâine, 22 Septembrie, Sâmbătă

    Timp Temperatura Precipitaţii Vânt Presiune Umiditate
    00:00 +16°C° 0 mm 2 m/s 751 mmHg 87%
    01:00 +16°C° 0 mm 2 m/s 751 mmHg 88%
    02:00 +15°C° 0 mm 2 m/s 751 mmHg 89%
    03:00 +14°C° 0 mm 3 m/s 751 mmHg 90%
    04:00 +14°C° 0 mm 3 m/s 751 mmHg 91%
    05:00 +16°C° 0 mm 3 m/s 750 mmHg 92%
    06:00 +17°C° 0 mm 3 m/s 750 mmHg 87%
    07:00 +18°C° 0 mm 4 m/s 750 mmHg 82%
    08:00 +20°C° 0 mm 4 m/s 750 mmHg 77%
    09:00 +21°C° 0 mm 5 m/s 749 mmHg 69%
    10:00 +23°C° 0 mm 5 m/s 749 mmHg 61%
    11:00 +24°C° 0 mm 6 m/s 749 mmHg 53%
    12:00 +26°C° 0 mm 6 m/s 748 mmHg 52%
    13:00 +26°C° 0 mm 6 m/s 747 mmHg 51%
    14:00 +26°C° 0 mm 6 m/s 747 mmHg 50%
    15:00 +25°C° 0.1 mm 5 m/s 747 mmHg 55%
    16:00 +23°C° 0.1 mm 4 m/s 746 mmHg 61%
    17:00 +21°C° 0.1 mm 4 m/s 746 mmHg 67%
    18:00 +21°C° 0.1 mm 4 m/s 745 mmHg 69%
    19:00 +20°C° 0.1 mm 4 m/s 745 mmHg 71%
    20:00 +19°C° 0.1 mm 4 m/s 745 mmHg 74%
    21:00 +19°C° 0.3 mm 4 m/s 745 mmHg 76%
    22:00 +18°C° 0.3 mm 4 m/s 745 mmHg 79%
    23:00 +17°C° 0.3 mm 4 m/s 745 mmHg 82%

    Poimâine, 23 Septembrie, Duminică

    Timp Temperatura Precipitaţii Vânt Presiune Umiditate
    00:00 +16°C° 0.3 mm 3 m/s 745 mmHg 85%
    01:00 +14°C° 0.3 mm 3 m/s 745 mmHg 88%
    02:00 +13°C° 0.3 mm 3 m/s 744 mmHg 90%
    03:00 +12°C° 0.2 mm 3 m/s 744 mmHg 90%
    04:00 +12°C° 0.2 mm 3 m/s 744 mmHg 91%
    05:00 +12°C° 0.2 mm 2 m/s 744 mmHg 91%
    06:00 +11°C° 0.7 mm 3 m/s 744 mmHg 91%
    07:00 +10°C° 0.7 mm 3 m/s 744 mmHg 91%
    08:00 +10°C° 0.7 mm 3 m/s 744 mmHg 91%
    09:00 +10°C° 1 mm 3 m/s 743 mmHg 91%
    10:00 +10°C° 1 mm 3 m/s 743 mmHg 92%
    11:00 +9°C° 1 mm 3 m/s 743 mmHg 92%
    12:00 +9°C° 2.1 mm 3 m/s 743 mmHg 92%
    13:00 +9°C° 2.1 mm 3 m/s 743 mmHg 93%
    14:00 +9°C° 2.1 mm 3 m/s 743 mmHg 93%
    15:00 +9°C° 0.8 mm 3 m/s 743 mmHg 93%
    16:00 +10°C° 0.8 mm 2 m/s 743 mmHg 93%
    17:00 +10°C° 0.8 mm 2 m/s 743 mmHg 93%
    18:00 +9°C° 0.1 mm 2 m/s 743 mmHg 94%
    19:00 +9°C° 0.1 mm 2 m/s 744 mmHg 95%
    20:00 +9°C° 0.1 mm 2 m/s 744 mmHg 96%
    21:00 +8°C° 0 mm 2 m/s 744 mmHg 96%
    22:00 +8°C° 0 mm 2 m/s 744 mmHg 95%
    23:00 +8°C° 0 mm 2 m/s 744 mmHg 95%

    24 Septembrie, Luni

    Timp Temperatura Precipitaţii Vânt Presiune Umiditate
    00:00 +7°C° 0 mm 2 m/s 744 mmHg 95%
    01:00 +7°C° 0 mm 2 m/s 744 mmHg 96%
    02:00 +7°C° 0 mm 2 m/s 744 mmHg 96%
    03:00 +7°C° 0 mm 3 m/s 744 mmHg 96%
    04:00 +7°C° 0 mm 3 m/s 744 mmHg 96%
    05:00 +7°C° 0 mm 3 m/s 744 mmHg 96%
    06:00 +7°C° 0 mm 3 m/s 744 mmHg 93%
    07:00 +8°C° 0 mm 3 m/s 744 mmHg 91%
    08:00 +7°C° 0 mm 4 m/s 745 mmHg 88%
    09:00 +8°C° 0 mm 4 m/s 745 mmHg 85%
    10:00 +10°C° 0 mm 3 m/s 745 mmHg 81%
    11:00 +10°C° 0 mm 3 m/s 745 mmHg 77%
    12:00 +11°C° 0 mm 3 m/s 745 mmHg 73%
    13:00 +12°C° 0 mm 3 m/s 745 mmHg 68%
    14:00 +14°C° 0 mm 2 m/s 745 mmHg 64%
    15:00 +13°C° 0 mm 2 m/s 745 mmHg 68%
    16:00 +12°C° 0 mm 2 m/s 745 mmHg 73%
    17:00 +10°C° 0 mm 2 m/s 745 mmHg 77%
    18:00 +10°C° 0.2 mm 2 m/s 744 mmHg 80%
    19:00 +10°C° 0.2 mm 3 m/s 743 mmHg 82%
    20:00 +10°C° 0.2 mm 3 m/s 743 mmHg 85%
    21:00 +9°C° 0.8 mm 3 m/s 742 mmHg 86%
    22:00 +8°C° 0.8 mm 4 m/s 742 mmHg 88%
    23:00 +8°C° 0.8 mm 4 m/s 741 mmHg 90%

    25 Septembrie, Marţi

    Timp Temperatura Precipitaţii Vânt Presiune Umiditate
    00:00 +8°C° 1.4 mm 5 m/s 740 mmHg 89%
    01:00 +8°C° 1.4 mm 6 m/s 739 mmHg 89%
    02:00 +8°C° 1.4 mm 6 m/s 737 mmHg 89%
    03:00 +8°C° 1.9 mm 6 m/s 737 mmHg 90%
    04:00 +8°C° 1.9 mm 7 m/s 736 mmHg 90%
    05:00 +8°C° 1.9 mm 7 m/s 735 mmHg 90%
    06:00 +8°C° 0.6 mm 6 m/s 734 mmHg 90%
    07:00 +9°C° 0.6 mm 6 m/s 734 mmHg 90%
    08:00 +9°C° 0.6 mm 6 m/s 733 mmHg 90%
    09:00 +9°C° 0.3 mm 5 m/s 733 mmHg 88%
    10:00 +10°C° 0.3 mm 5 m/s 733 mmHg 85%
    11:00 +10°C° 0.3 mm 5 m/s 733 mmHg 83%
    12:00 +11°C° 0.4 mm 4 m/s 733 mmHg 84%
    13:00 +11°C° 0.4 mm 4 m/s 733 mmHg 84%
    14:00 +10°C° 0.4 mm 3 m/s 732 mmHg 84%
    15:00 +10°C° 0.3 mm 3 m/s 732 mmHg 86%
    16:00 +10°C° 0.3 mm 2 m/s 733 mmHg 88%
    17:00 +9°C° 0.3 mm 2 m/s 733 mmHg 90%
    18:00 +9°C° 0.3 mm 2 m/s 733 mmHg 92%
    19:00 +9°C° 0.3 mm 2 m/s 733 mmHg 93%
    20:00 +9°C° 0.3 mm 1 m/s 733 mmHg 95%
    21:00 +9°C° 0.4 mm 1 m/s 733 mmHg 95%
    22:00 +9°C° 0.4 mm 1 m/s 733 mmHg 96%
    23:00 +9°C° 0.4 mm 1 m/s 733 mmHg 96%

    26 Septembrie, Miercuri

    Timp Temperatura Precipitaţii Vânt Presiune Umiditate
    00:00 +9°C° 0.6 mm 1 m/s 733 mmHg 96%
    01:00 +8°C° 0.6 mm 2 m/s 734 mmHg 96%
    02:00 +8°C° 0.6 mm 2 m/s 734 mmHg 96%
    03:00 +8°C° 0.5 mm 2 m/s 734 mmHg 95%
    04:00 +8°C° 0.5 mm 3 m/s 734 mmHg 95%
    05:00 +8°C° 0.5 mm 3 m/s 735 mmHg 94%
    06:00 +7°C° 0.3 mm 4 m/s 735 mmHg 93%
    07:00 +7°C° 0.3 mm 4 m/s 736 mmHg 92%
    08:00 +7°C° 0.3 mm 4 m/s 737 mmHg 91%
    09:00 +7°C° 0.3 mm 5 m/s 737 mmHg 90%
    10:00 +7°C° 0.3 mm 5 m/s 738 mmHg 89%
    11:00 +7°C° 0.3 mm 5 m/s 739 mmHg 88%
    12:00 +7°C° 0.1 mm 5 m/s 740 mmHg 88%
    13:00 +7°C° 0.1 mm 5 m/s 741 mmHg 87%
    14:00 +7°C° 0.1 mm 5 m/s 742 mmHg 87%
    15:00 +7°C° 0.2 mm 5 m/s 743 mmHg 88%
    16:00 +7°C° 0.2 mm 5 m/s 743 mmHg 89%
    17:00 +7°C° 0.2 mm 4 m/s 744 mmHg 90%
    18:00 +7°C° 0.2 mm 4 m/s 745 mmHg 90%
    19:00 +7°C° 0.2 mm 5 m/s 746 mmHg 90%
    20:00 +7°C° 0.2 mm 5 m/s 747 mmHg 90%
    21:00 +6°C° 0.1 mm 4 m/s 748 mmHg 90%
    22:00 +6°C° 0.1 mm 4 m/s 748 mmHg 89%
    23:00 +6°C° 0.1 mm 4 m/s 749 mmHg 89%
    Arată mai mult